Location: Byhalia Creek
(34.8270°N, 89.8040°W)
Time: 08:19:57
(UTC+00:00)

Cosmos 1743 Rocket - Pass Details

Date: 22 April 2026
Orbit: 597 x 625 km, 82.6° (Epoch: 15 May)

Event Time Altitude Azimuth Distance (km) Brightness Sun altitude
Rises 10:37:03 0° 352° (N) 2,890 7.2 -8.9°
Reaches altitude 10° 10:39:18 10° 352° (N) 1,976 6.3 -8.5°
Maximum altitude 10:43:40 83° 264° (W) 618 3.5 -7.7°
Drops below altitude 10° 10:47:59 10° 177° (S) 1,945 5.9 -6.8°
Sets 10:50:10 0° 177° (S) 2,840 6.8 -6.4°
